Time,TemperatureF,DewpointF,PressureIn,WindDirection,WindDirectionDegrees,WindSpeedMPH,WindSpeedGustMPH,Humidity,HourlyPrecipIn,Conditions,Clouds,dailyrainin,SoftwareType,DateUTC
2013-02-25 00:02:00,35.6,30.1,30.26,NNE,23,0.0,0.0,80,0.00,,,0.00,WUHU216HW,2013-02-25 08:02:00,
2013-02-25 00:07:00,35.5,30.2,30.27,NNW,338,0.0,0.0,81,0.00,,,0.00,WUHU216HW,2013-02-25 08:07:00,
2013-02-25 00:12:00,35.3,30.0,30.26,NNW,338,0.0,0.0,81,0.00,,,0.00,WUHU216HW,2013-02-25 08:12:00,
2013-02-25 00:17:00,35.1,29.8,30.26,NNW,338,0.0,0.0,81,0.00,,,0.00,WUHU216HW,2013-02-25 08:17:00,
2013-02-25 00:22:00,35.1,29.8,30.27,NNW,338,0.0,0.2,81,0.00,,,0.00,WUHU216HW,2013-02-25 08:22:00,
2013-02-25 00:27:00,34.9,29.9,30.27,North,0,0.0,0.2,82,0.00,,,0.00,WUHU216HW,2013-02-25 08:27:00,
2013-02-25 00:32:00,34.9,29.9,30.27,North,0,0.0,0.0,82,0.00,,,0.00,WUHU216HW,2013-02-25 08:32:00,
2013-02-25 00:37:00,34.7,30.1,30.27,NNE,23,0.0,0.0,83,0.00,,,0.00,WUHU216HW,2013-02-25 08:37:00,
2013-02-25 00:42:00,34.6,30.2,30.27,ENE,68,0.2,0.2,84,0.00,,,0.00,WUHU216HW,2013-02-25 08:42:00,
2013-02-25 00:47:00,34.6,30.2,30.27,ENE,68,0.0,0.2,84,0.00,,,0.00,WUHU216HW,2013-02-25 08:47:00,
2013-02-25 00:52:00,34.7,30.1,30.27,ENE,68,0.0,0.2,83,0.00,,,0.00,WUHU216HW,2013-02-25 08:52:00,
2013-02-25 00:57:00,34.7,30.1,30.27,ESE,113,0.0,0.0,83,0.00,,,0.00,WUHU216HW,2013-02-25 08:57:00,
2013-02-25 01:02:00,34.7,30.1,30.27,SE,135,0.0,0.0,83,0.00,,,0.00,WUHU216HW,2013-02-25 09:02:00,
2013-02-25 01:07:00,34.7,29.7,30.28,SE,135,0.0,0.0,82,0.00,,,0.00,WUHU216HW,2013-02-25 09:07:00,
2013-02-25 01:12:00,34.6,29.5,30.28,WSW,248,0.0,0.0,82,0.00,,,0.00,WUHU216HW,2013-02-25 09:12:00,
2013-02-25 01:17:00,34.7,30.1,30.28,West,270,0.4,0.4,83,0.00,,,0.00,WUHU216HW,2013-02-25 09:17:00,
2013-02-25 01:22:00,34.9,30.5,30.28,WSW,248,0.4,1.1,84,0.00,,,0.00,WUHU216HW,2013-02-25 09:22:00,
2013-02-25 01:27:00,34.7,30.6,30.29,WNW,293,0.0,1.1,85,0.00,,,0.00,WUHU216HW,2013-02-25 09:27:00,
2013-02-25 01:32:00,34.6,30.2,30.29,North,0,0.0,0.9,84,0.00,,,0.00,WUHU216HW,2013-02-25 09:32:00,
2013-02-25 01:37:00,34.4,30.0,30.29,North,0,0.0,0.2,84,0.00,,,0.00,WUHU216HW,2013-02-25 09:37:00,
2013-02-25 01:42:00,34.2,29.8,30.29,NE,45,0.4,0.4,84,0.00,,,0.00,WUHU216HW,2013-02-25 09:42:00,
2013-02-25 01:47:00,33.8,29.4,30.29,NNE,23,0.0,0.4,84,0.00,,,0.00,WUHU216HW,2013-02-25 09:47:00,
2013-02-25 01:52:00,33.7,29.0,30.29,ENE,68,0.4,0.4,83,0.00,,,0.00,WUHU216HW,2013-02-25 09:52:00,
2013-02-25 01:57:00,33.5,29.3,30.28,East,90,0.0,0.4,85,0.00,,,0.00,WUHU216HW,2013-02-25 09:57:00,
2013-02-25 02:02:00,33.3,29.5,30.28,ENE,68,0.4,0.4,86,0.00,,,0.00,WUHU216HW,2013-02-25 10:02:00,
2013-02-25 02:07:00,33.1,29.1,30.29,NE,45,0.0,0.4,85,0.00,,,0.00,WUHU216HW,2013-02-25 10:07:00,
2013-02-25 02:12:00,32.9,28.9,30.29,ENE,68,0.0,0.4,85,0.00,,,0.00,WUHU216HW,2013-02-25 10:12:00,
2013-02-25 02:17:00,32.9,29.2,30.28,ENE,68,0.0,0.4,86,0.00,,,0.00,WUHU216HW,2013-02-25 10:17:00,
2013-02-25 02:22:00,33.1,29.3,30.28,ENE,68,0.0,0.4,86,0.00,,,0.00,WUHU216HW,2013-02-25 10:22:00,
2013-02-25 02:27:00,33.1,29.3,30.28,NE,45,0.0,0.0,86,0.00,,,0.00,WUHU216HW,2013-02-25 10:27:00,
2013-02-25 02:32:00,33.3,29.5,30.28,NE,45,0.0,0.2,86,0.00,,,0.00,WUHU216HW,2013-02-25 10:32:00,
2013-02-25 02:37:00,33.3,29.5,30.28,NW,315,0.0,0.2,86,0.00,,,0.00,WUHU216HW,2013-02-25 10:37:00,
2013-02-25 02:42:00,33.3,29.3,30.27,NW,315,0.0,0.0,85,0.00,,,0.00,WUHU216HW,2013-02-25 10:42:00,
2013-02-25 02:47:00,33.1,29.1,30.27,NNW,338,0.0,0.0,85,0.00,,,0.00,WUHU216HW,2013-02-25 10:47:00,
2013-02-25 02:52:00,33.1,29.1,30.27,WSW,248,0.0,0.4,85,0.00,,,0.00,WUHU216HW,2013-02-25 10:52:00,
2013-02-25 02:57:00,33.1,29.1,30.27,North,0,0.0,1.1,85,0.00,,,0.00,WUHU216HW,2013-02-25 10:57:00,
2013-02-25 03:02:00,33.3,29.5,30.26,North,0,0.2,1.1,86,0.00,,,0.00,WUHU216HW,2013-02-25 11:02:00,
2013-02-25 03:07:00,33.3,29.3,30.26,North,0,0.0,0.2,85,0.00,,,0.00,WUHU216HW,2013-02-25 11:07:00,
2013-02-25 03:12:00,33.3,29.3,30.26,North,0,0.0,0.2,85,0.00,,,0.00,WUHU216HW,2013-02-25 11:12:00,
2013-02-25 03:17:00,33.1,29.1,30.26,North,0,0.0,0.2,85,0.00,,,0.00,WUHU216HW,2013-02-25 11:17:00,
2013-02-25 03:22:00,32.9,29.4,30.26,NE,45,0.0,0.4,87,0.00,,,0.00,WUHU216HW,2013-02-25 11:22:00,
2013-02-25 03:27:00,32.8,29.0,30.26,NE,45,0.0,0.4,86,0.00,,,0.00,WUHU216HW,2013-02-25 11:27:00,
2013-02-25 03:32:00,32.6,28.9,30.26,NE,45,0.0,0.0,86,0.00,,,0.00,WUHU216HW,2013-02-25 11:32:00,
2013-02-25 03:37:00,32.6,28.5,30.25,NE,45,0.0,0.0,85,0.00,,,0.00,WUHU216HW,2013-02-25 11:37:00,
2013-02-25 03:42:00,32.4,28.5,30.25,NE,45,0.0,0.0,85,0.00,,,0.00,WUHU216HW,2013-02-25 11:42:00,
2013-02-25 03:47:00,32.2,28.3,30.24,NE,45,0.0,0.0,85,0.00,,,0.00,WUHU216HW,2013-02-25 11:47:00,
2013-02-25 03:52:00,32.0,28.1,30.24,NE,45,0.0,0.0,85,0.00,,,0.00,WUHU216HW,2013-02-25 11:52:00,
2013-02-25 03:57:00,32.2,28.3,30.25,NE,45,0.0,0.0,85,0.00,,,0.00,WUHU216HW,2013-02-25 11:57:00,
2013-02-25 04:02:00,32.2,28.3,30.25,WNW,293,0.0,0.0,85,0.00,,,0.00,WUHU216HW,2013-02-25 12:02:00,
2013-02-25 04:07:00,32.0,28.1,30.25,WNW,293,0.0,0.0,85,0.00,,,0.00,WUHU216HW,2013-02-25 12:07:00,
2013-02-25 04:12:00,32.0,28.1,30.25,WNW,293,0.0,0.0,85,0.00,,,0.00,WUHU216HW,2013-02-25 12:12:00,
2013-02-25 04:17:00,31.9,27.9,30.25,WNW,293,0.0,0.0,85,0.00,,,0.00,WUHU216HW,2013-02-25 12:17:00,
2013-02-25 04:22:00,31.5,27.5,30.26,NW,315,0.0,0.0,85,0.00,,,0.00,WUHU216HW,2013-02-25 12:22:00,
2013-02-25 04:27:00,31.3,27.4,30.26,NW,315,0.0,0.0,85,0.00,,,0.00,WUHU216HW,2013-02-25 12:27:00,
2013-02-25 04:32:00,31.3,27.4,30.26,NW,315,0.0,0.0,85,0.00,,,0.00,WUHU216HW,2013-02-25 12:32:00,
2013-02-25 04:37:00,31.3,27.4,30.26,NW,315,0.0,0.0,85,0.00,,,0.00,WUHU216HW,2013-02-25 12:37:00,
2013-02-25 04:42:00,31.1,27.2,30.26,NE,45,0.0,0.0,85,0.00,,,0.00,WUHU216HW,2013-02-25 12:42:00,
2013-02-25 04:47:00,31.1,27.2,30.26,NE,45,0.0,0.0,85,0.00,,,0.00,WUHU216HW,2013-02-25 12:47:00,
2013-02-25 04:53:00,31.1,27.2,30.27,NE,45,0.0,0.0,85,0.00,,,0.00,WUHU216HW,2013-02-25 12:53:00,
2013-02-25 04:58:00,31.3,27.4,30.27,NE,45,0.0,0.0,85,0.00,,,0.00,WUHU216HW,2013-02-25 12:58:00,
2013-02-25 05:03:00,31.1,27.2,30.27,NE,45,0.0,0.0,85,0.00,,,0.00,WUHU216HW,2013-02-25 13:03:00,
2013-02-25 05:08:00,31.3,27.4,30.27,NE,45,0.0,0.0,85,0.00,,,0.00,WUHU216HW,2013-02-25 13:08:00,
2013-02-25 05:13:00,31.5,27.8,30.27,SE,135,0.0,0.0,86,0.00,,,0.00,WUHU216HW,2013-02-25 13:13:00,
2013-02-25 05:18:00,31.7,28.0,30.27,SE,135,0.0,0.0,86,0.00,,,0.00,WUHU216HW,2013-02-25 13:18:00,
2013-02-25 05:23:00,31.9,28.2,30.27,SE,135,0.0,0.0,86,0.00,,,0.00,WUHU216HW,2013-02-25 13:23:00,
2013-02-25 05:28:00,32.2,28.5,30.28,SE,135,0.0,0.0,86,0.00,,,0.00,WUHU216HW,2013-02-25 13:28:00,
2013-02-25 05:33:00,32.4,28.7,30.28,SE,135,0.0,0.0,86,0.00,,,0.00,WUHU216HW,2013-02-25 13:33:00,
2013-02-25 05:38:00,32.6,28.9,30.28,SE,135,0.0,0.0,86,0.00,,,0.00,WUHU216HW,2013-02-25 13:38:00,
2013-02-25 05:43:00,32.4,28.5,30.28,SE,135,0.0,0.0,85,0.00,,,0.00,WUHU216HW,2013-02-25 13:43:00,
2013-02-25 05:48:00,32.4,28.5,30.28,SE,135,0.0,0.0,85,0.00,,,0.00,WUHU216HW,2013-02-25 13:48:00,
2013-02-25 05:53:00,32.4,28.5,30.28,SE,135,0.0,0.0,85,0.00,,,0.00,WUHU216HW,2013-02-25 13:53:00,
2013-02-25 05:58:00,32.2,28.3,30.28,ENE,68,0.0,0.0,85,0.00,,,0.00,WUHU216HW,2013-02-25 13:58:00,
2013-02-25 06:03:00,32.0,28.1,30.28,NE,45,0.0,0.0,85,0.00,,,0.00,WUHU216HW,2013-02-25 14:03:00,
2013-02-25 06:08:00,32.0,28.4,30.28,NE,45,0.0,0.0,86,0.00,,,0.00,WUHU216HW,2013-02-25 14:08:00,
2013-02-25 06:13:00,32.0,28.1,30.28,NW,315,0.0,0.7,85,0.00,,,0.00,WUHU216HW,2013-02-25 14:13:00,
2013-02-25 06:18:00,31.7,28.0,30.28,NW,315,0.0,0.7,86,0.00,,,0.00,WUHU216HW,2013-02-25 14:18:00,
2013-02-25 06:23:00,31.5,27.5,30.28,NNW,338,0.0,0.0,85,0.00,,,0.00,WUHU216HW,2013-02-25 14:23:00,
2013-02-25 06:28:00,31.3,27.4,30.28,NNW,338,0.0,0.0,85,0.00,,,0.00,WUHU216HW,2013-02-25 14:28:00,
2013-02-25 06:33:00,31.3,27.6,30.28,NNW,338,0.0,0.0,86,0.00,,,0.00,WUHU216HW,2013-02-25 14:33:00,
2013-02-25 06:38:00,31.3,27.6,30.28,NNW,338,0.0,0.0,86,0.00,,,0.00,WUHU216HW,2013-02-25 14:38:00,
2013-02-25 06:43:00,31.3,27.6,30.28,NNW,338,0.0,0.0,86,0.00,,,0.00,WUHU216HW,2013-02-25 14:43:00,
2013-02-25 06:48:00,31.1,27.5,30.28,NNW,338,0.0,0.0,86,0.00,,,0.00,WUHU216HW,2013-02-25 14:48:00,
2013-02-25 06:53:00,31.3,27.6,30.28,North,0,0.0,0.4,86,0.00,,,0.00,WUHU216HW,2013-02-25 14:53:00,
2013-02-25 06:58:00,31.3,27.6,30.28,NNW,338,0.0,0.4,86,0.00,,,0.00,WUHU216HW,2013-02-25 14:58:00,
2013-02-25 07:03:00,31.5,27.8,30.28,NNW,338,0.0,0.0,86,0.00,,,0.00,WUHU216HW,2013-02-25 15:03:00,
2013-02-25 07:08:00,31.9,28.2,30.28,NNW,338,0.0,0.0,86,0.00,,,0.00,WUHU216HW,2013-02-25 15:08:00,
2013-02-25 07:13:00,32.0,28.4,30.28,NNW,338,0.0,0.0,86,0.00,,,0.00,WUHU216HW,2013-02-25 15:13:00,
2013-02-25 07:18:00,32.4,29.0,30.28,North,0,0.0,0.0,87,0.00,,,0.00,WUHU216HW,2013-02-25 15:18:00,
2013-02-25 07:23:00,32.9,29.8,30.28,ENE,68,0.0,0.4,88,0.00,,,0.00,WUHU216HW,2013-02-25 15:23:00,
2013-02-25 07:28:00,33.5,30.2,30.28,ENE,68,0.0,0.4,88,0.00,,,0.00,WUHU216HW,2013-02-25 15:28:00,
2013-02-25 07:33:00,33.8,30.6,30.28,WNW,293,0.0,0.0,88,0.00,,,0.00,WUHU216HW,2013-02-25 15:33:00,
2013-02-25 07:38:00,34.4,30.8,30.28,WNW,293,0.0,0.0,87,0.00,,,0.00,WUHU216HW,2013-02-25 15:38:00,
2013-02-25 07:43:00,34.9,31.3,30.27,West,270,0.4,0.4,87,0.00,,,0.00,WUHU216HW,2013-02-25 15:43:00,
2013-02-25 07:48:00,35.8,32.9,30.28,WNW,293,0.0,0.9,89,0.00,,,0.00,WUHU216HW,2013-02-25 15:48:00,
2013-02-25 07:53:00,37.1,33.9,30.28,WNW,293,0.0,0.9,88,0.00,,,0.00,WUHU216HW,2013-02-25 15:53:00,
2013-02-25 07:58:00,37.6,34.4,30.27,West,270,0.0,0.7,88,0.00,,,0.00,WUHU216HW,2013-02-25 15:58:00,
2013-02-25 08:03:00,38.5,35.3,30.27,West,270,0.0,0.4,88,0.00,,,0.00,WUHU216HW,2013-02-25 16:03:00,
2013-02-25 08:08:00,39.2,35.6,30.28,West,270,0.2,0.7,87,0.00,,,0.00,WUHU216HW,2013-02-25 16:08:00,
2013-02-25 08:13:00,40.0,36.4,30.27,WSW,248,0.0,0.7,87,0.00,,,0.00,WUHU216HW,2013-02-25 16:13:00,
2013-02-25 08:18:00,41.0,37.1,30.27,WSW,248,0.0,0.2,86,0.00,,,0.00,WUHU216HW,2013-02-25 16:18:00,
2013-02-25 08:23:00,41.6,37.4,30.27,WNW,293,0.4,0.4,85,0.00,,,0.00,WUHU216HW,2013-02-25 16:23:00,
2013-02-25 08:28:00,42.3,38.1,30.27,WSW,248,0.0,0.4,85,0.00,,,0.00,WUHU216HW,2013-02-25 16:28:00,
2013-02-25 08:33:00,42.8,38.6,30.26,SSW,203,0.9,0.9,85,0.00,,,0.00,WUHU216HW,2013-02-25 16:33:00,
2013-02-25 08:38:00,43.9,39.4,30.26,West,270,0.4,1.1,84,0.00,,,0.00,WUHU216HW,2013-02-25 16:38:00,
2013-02-25 08:43:00,44.6,39.5,30.26,SE,135,0.4,1.1,82,0.00,,,0.00,WUHU216HW,2013-02-25 16:43:00,
2013-02-25 08:48:00,45.9,40.4,30.26,SE,135,1.3,1.8,81,0.00,,,0.00,WUHU216HW,2013-02-25 16:48:00,
2013-02-25 08:53:00,46.8,40.7,30.26,SE,135,1.8,1.8,79,0.00,,,0.00,WUHU216HW,2013-02-25 16:53:00,
2013-02-25 08:58:00,47.5,41.0,30.26,West,270,0.0,1.8,78,0.00,,,0.00,WUHU216HW,2013-02-25 16:58:00,
2013-02-25 09:03:00,48.1,41.1,30.26,West,270,0.0,1.8,77,0.00,,,0.00,WUHU216HW,2013-02-25 17:03:00,
2013-02-25 09:08:00,48.6,41.3,30.26,SW,225,0.4,2.0,76,0.00,,,0.00,WUHU216HW,2013-02-25 17:08:00,
2013-02-25 09:13:00,49.1,41.1,30.26,SE,135,1.6,2.7,74,0.00,,,0.00,WUHU216HW,2013-02-25 17:13:00,
2013-02-25 09:18:00,49.7,40.3,30.26,SSE,158,1.1,2.9,70,0.00,,,0.00,WUHU216HW,2013-02-25 17:18:00,
2013-02-25 09:23:00,50.2,40.9,30.26,SSE,158,2.5,2.9,70,0.00,,,0.00,WUHU216HW,2013-02-25 17:23:00,
2013-02-25 09:28:00,50.8,41.1,30.26,South,180,2.0,2.9,69,0.00,,,0.00,WUHU216HW,2013-02-25 17:28:00,
2013-02-25 09:33:00,51.5,41.3,30.26,SW,225,1.8,4.0,68,0.00,,,0.00,WUHU216HW,2013-02-25 17:33:00,
2013-02-25 09:38:00,52.0,41.9,30.25,WSW,248,3.1,4.0,68,0.00,,,0.00,WUHU216HW,2013-02-25 17:38:00,
2013-02-25 09:43:00,52.4,41.3,30.25,SSE,158,2.2,3.4,66,0.00,,,0.00,WUHU216HW,2013-02-25 17:43:00,
2013-02-25 09:48:00,53.1,42.0,30.24,SSW,203,1.8,3.4,66,0.00,,,0.00,WUHU216HW,2013-02-25 17:48:00,
2013-02-25 09:53:00,53.5,41.6,30.24,SSE,158,1.8,2.9,64,0.00,,,0.00,WUHU216HW,2013-02-25 17:53:00,
2013-02-25 09:58:00,53.8,40.3,30.25,NW,315,0.4,2.9,60,0.00,,,0.00,WUHU216HW,2013-02-25 17:58:00,
2013-02-25 10:04:00,54.2,41.1,30.24,SE,135,2.7,3.1,61,0.00,,,0.00,WUHU216HW,2013-02-25 18:04:00,
2013-02-25 10:09:00,54.7,40.7,30.24,SE,135,1.8,3.1,59,0.00,,,0.00,WUHU216HW,2013-02-25 18:09:00,
2013-02-25 10:14:00,54.9,41.3,30.25,SW,225,1.3,2.7,60,0.00,,,0.00,WUHU216HW,2013-02-25 18:14:00,
2013-02-25 10:19:00,55.3,42.0,30.25,WSW,248,2.5,2.5,61,0.00,,,0.00,WUHU216HW,2013-02-25 18:19:00,
2013-02-25 10:24:00,55.6,41.9,30.25,WSW,248,0.4,2.7,60,0.00,,,0.00,WUHU216HW,2013-02-25 18:24:00,
2013-02-25 10:29:00,55.8,41.7,30.25,West,270,2.5,2.7,59,0.00,,,0.00,WUHU216HW,2013-02-25 18:29:00,
2013-02-25 10:34:00,56.0,41.4,30.25,NNW,338,1.8,3.4,58,0.00,,,0.00,WUHU216HW,2013-02-25 18:34:00,
2013-02-25 10:39:00,56.2,42.5,30.25,SSW,203,0.9,4.7,60,0.00,,,0.00,WUHU216HW,2013-02-25 18:39:00,
2013-02-25 10:44:00,56.5,42.8,30.25,West,270,1.3,4.7,60,0.00,,,0.00,WUHU216HW,2013-02-25 18:44:00,
2013-02-25 10:49:00,56.7,43.0,30.25,WNW,293,1.1,4.0,60,0.00,,,0.00,WUHU216HW,2013-02-25 18:49:00,
2013-02-25 10:54:00,57.1,42.9,30.25,SSE,158,0.4,4.0,59,0.00,,,0.00,WUHU216HW,2013-02-25 18:54:00,
2013-02-25 10:59:00,57.2,42.7,30.25,West,270,2.7,3.1,58,0.00,,,0.00,WUHU216HW,2013-02-25 18:59:00,
2013-02-25 11:04:00,57.6,41.6,30.25,WNW,293,0.9,4.0,55,0.00,,,0.00,WUHU216HW,2013-02-25 19:04:00,
2013-02-25 11:09:00,57.4,40.0,30.24,NW,315,1.8,4.0,52,0.00,,,0.00,WUHU216HW,2013-02-25 19:09:00,
2013-02-25 11:14:00,57.2,40.8,30.24,West,270,3.8,3.8,54,0.00,,,0.00,WUHU216HW,2013-02-25 19:14:00,
2013-02-25 11:19:00,57.6,41.0,30.24,WNW,293,0.4,3.8,54,0.00,,,0.00,WUHU216HW,2013-02-25 19:19:00,
2013-02-25 11:24:00,58.3,41.8,30.24,West,270,1.8,3.8,54,0.00,,,0.00,WUHU216HW,2013-02-25 19:24:00,
2013-02-25 11:29:00,58.5,41.4,30.24,West,270,1.6,3.4,53,0.00,,,0.00,WUHU216HW,2013-02-25 19:29:00,
2013-02-25 11:34:00,58.7,41.6,30.24,NNW,338,0.4,3.4,53,0.00,,,0.00,WUHU216HW,2013-02-25 19:34:00,
2013-02-25 11:39:00,59.0,42.0,30.23,SSW,203,1.1,3.4,53,0.00,,,0.00,WUHU216HW,2013-02-25 19:39:00,
2013-02-25 11:44:00,59.2,41.1,30.23,WNW,293,0.4,4.0,51,0.00,,,0.00,WUHU216HW,2013-02-25 19:44:00,
2013-02-25 11:49:00,59.4,40.2,30.23,WNW,293,0.4,4.0,49,0.00,,,0.00,WUHU216HW,2013-02-25 19:49:00,
2013-02-25 11:54:00,59.4,40.9,30.23,NW,315,2.2,3.4,50,0.00,,,0.00,WUHU216HW,2013-02-25 19:54:00,
2013-02-25 11:59:00,59.8,40.6,30.22,SSW,203,2.0,3.6,49,0.00,,,0.00,WUHU216HW,2013-02-25 19:59:00,
2013-02-25 12:04:00,59.9,40.1,30.22,North,0,1.3,3.6,48,0.00,,,0.00,WUHU216HW,2013-02-25 20:04:00,
2013-02-25 12:09:00,59.9,39.6,30.21,NE,45,1.1,3.6,47,0.00,,,0.00,WUHU216HW,2013-02-25 20:09:00,
2013-02-25 12:14:00,60.1,39.8,30.21,NW,315,2.5,3.1,47,0.00,,,0.00,WUHU216HW,2013-02-25 20:14:00,
2013-02-25 12:19:00,60.5,40.1,30.20,ESE,113,0.2,4.7,47,0.00,,,0.00,WUHU216HW,2013-02-25 20:19:00,
2013-02-25 12:24:00,60.5,39.5,30.20,WNW,293,1.1,4.7,46,0.00,,,0.00,WUHU216HW,2013-02-25 20:24:00,
2013-02-25 12:29:00,60.5,40.1,30.20,NW,315,1.1,4.0,47,0.00,,,0.00,WUHU216HW,2013-02-25 20:29:00,
2013-02-25 12:34:00,60.8,39.8,30.20,West,270,2.9,3.4,46,0.00,,,0.00,WUHU216HW,2013-02-25 20:34:00,
2013-02-25 12:39:00,61.2,40.1,30.19,West,270,1.8,4.7,46,0.00,,,0.00,WUHU216HW,2013-02-25 20:39:00,
2013-02-25 12:44:00,61.2,38.4,30.19,North,0,3.1,4.7,43,0.00,,,0.00,WUHU216HW,2013-02-25 20:44:00,
2013-02-25 12:49:00,60.8,39.2,30.19,SSW,203,0.7,3.4,45,0.00,,,0.00,WUHU216HW,2013-02-25 20:49:00,
2013-02-25 12:54:00,61.2,37.3,30.18,NNW,338,1.3,3.8,41,0.00,,,0.00,WUHU216HW,2013-02-25 20:54:00,
2013-02-25 12:59:00,61.2,37.3,30.18,NNE,23,2.5,3.8,41,0.00,,,0.00,WUHU216HW,2013-02-25 20:59:00,
2013-02-25 13:04:00,61.2,36.7,30.18,NW,315,0.4,3.4,40,0.00,,,0.00,WUHU216HW,2013-02-25 21:04:00,
2013-02-25 13:09:00,61.4,38.6,30.18,NW,315,1.3,3.8,43,0.00,,,0.00,WUHU216HW,2013-02-25 21:09:00,
2013-02-25 13:14:00,61.7,38.9,30.18,South,180,1.1,5.4,43,0.00,,,0.00,WUHU216HW,2013-02-25 21:14:00,
2013-02-25 13:19:00,62.3,38.8,30.18,South,180,1.6,5.4,42,0.00,,,0.00,WUHU216HW,2013-02-25 21:19:00,
2013-02-25 13:24:00,62.6,40.3,30.18,SW,225,2.7,4.0,44,0.00,,,0.00,WUHU216HW,2013-02-25 21:24:00,
2013-02-25 13:29:00,63.0,40.1,30.18,NW,315,1.3,4.5,43,0.00,,,0.00,WUHU216HW,2013-02-25 21:29:00,
2013-02-25 13:34:00,63.4,39.8,30.18,SSE,158,3.4,4.9,42,0.00,,,0.00,WUHU216HW,2013-02-25 21:34:00,
2013-02-25 13:39:00,63.5,40.0,30.18,WNW,293,3.4,6.3,42,0.00,,,0.00,WUHU216HW,2013-02-25 21:39:00,
2013-02-25 13:44:00,63.4,39.8,30.18,WSW,248,0.9,6.3,42,0.00,,,0.00,WUHU216HW,2013-02-25 21:44:00,
2013-02-25 13:49:00,63.4,39.3,30.18,NW,315,2.9,4.0,41,0.00,,,0.00,WUHU216HW,2013-02-25 21:49:00,
2013-02-25 13:54:00,63.5,38.8,30.18,SW,225,0.7,4.0,40,0.00,,,0.00,WUHU216HW,2013-02-25 21:54:00,
2013-02-25 13:59:00,63.7,39.0,30.18,NW,315,1.3,4.5,40,0.00,,,0.00,WUHU216HW,2013-02-25 21:59:00,
2013-02-25 14:04:00,63.4,37.9,30.18,SW,225,1.1,4.5,39,0.00,,,0.00,WUHU216HW,2013-02-25 22:04:00,
2013-02-25 14:09:00,63.5,38.8,30.18,NW,315,1.8,3.4,40,0.00,,,0.00,WUHU216HW,2013-02-25 22:09:00,
2013-02-25 14:14:00,63.7,39.5,30.18,WSW,248,3.4,5.1,41,0.00,,,0.00,WUHU216HW,2013-02-25 22:14:00,
2013-02-25 14:19:00,63.9,38.4,30.18,WNW,293,2.7,5.1,39,0.00,,,0.00,WUHU216HW,2013-02-25 22:19:00,
2013-02-25 14:24:00,63.9,37.0,30.17,NNW,338,1.1,4.0,37,0.00,,,0.00,WUHU216HW,2013-02-25 22:24:00,
2013-02-25 14:29:00,63.5,38.1,30.17,WNW,293,1.6,4.0,39,0.00,,,0.00,WUHU216HW,2013-02-25 22:29:00,
2013-02-25 14:34:00,63.7,38.3,30.17,WSW,248,1.6,5.1,39,0.00,,,0.00,WUHU216HW,2013-02-25 22:34:00,
2013-02-25 14:39:00,63.9,38.4,30.17,West,270,2.5,5.1,39,0.00,,,0.00,WUHU216HW,2013-02-25 22:39:00,
2013-02-25 14:44:00,64.1,39.2,30.17,WNW,293,1.6,4.3,40,0.00,,,0.00,WUHU216HW,2013-02-25 22:44:00,
2013-02-25 14:49:00,64.1,38.5,30.17,NNW,338,1.6,4.3,39,0.00,,,0.00,WUHU216HW,2013-02-25 22:49:00,
2013-02-25 14:54:00,63.9,38.4,30.16,WNW,293,0.4,3.8,39,0.00,,,0.00,WUHU216HW,2013-02-25 22:54:00,
2013-02-25 14:59:00,63.7,36.1,30.16,SSE,158,0.7,3.8,36,0.00,,,0.00,WUHU216HW,2013-02-25 22:59:00,
2013-02-25 15:04:00,63.2,36.3,30.16,SW,225,1.1,2.7,37,0.00,,,0.00,WUHU216HW,2013-02-25 23:04:00,
2013-02-25 15:09:00,63.4,37.2,30.15,SW,225,2.5,4.0,38,0.00,,,0.00,WUHU216HW,2013-02-25 23:09:00,
2013-02-25 15:14:00,63.4,37.9,30.15,NW,315,1.3,4.0,39,0.00,,,0.00,WUHU216HW,2013-02-25 23:14:00,
2013-02-25 15:19:00,63.4,37.9,30.14,NW,315,1.3,4.3,39,0.00,,,0.00,WUHU216HW,2013-02-25 23:19:00,
2013-02-25 15:24:00,63.5,38.1,30.14,NW,315,0.4,4.3,39,0.00,,,0.00,WUHU216HW,2013-02-25 23:24:00,
2013-02-25 15:29:00,63.7,36.8,30.14,NW,315,1.1,4.0,37,0.00,,,0.00,WUHU216HW,2013-02-25 23:29:00,
2013-02-25 15:34:00,63.7,38.3,30.14,NW,315,2.5,3.6,39,0.00,,,0.00,WUHU216HW,2013-02-25 23:34:00,
2013-02-25 15:39:00,64.1,39.2,30.14,SSW,203,0.4,2.7,40,0.00,,,0.00,WUHU216HW,2013-02-25 23:39:00,
2013-02-25 15:44:00,64.3,38.0,30.14,SSE,158,2.7,2.7,38,0.00,,,0.00,WUHU216HW,2013-02-25 23:44:00,
2013-02-25 15:49:00,64.1,38.5,30.14,SW,225,1.8,3.4,39,0.00,,,0.00,WUHU216HW,2013-02-25 23:49:00,
2013-02-25 15:54:00,64.1,38.5,30.13,WNW,293,2.5,3.4,39,0.00,,,0.00,WUHU216HW,2013-02-25 23:54:00,
2013-02-25 15:59:00,63.7,38.3,30.13,West,270,3.1,4.3,39,0.00,,,0.00,WUHU216HW,2013-02-25 23:59:00,
2013-02-25 16:04:00,63.7,38.3,30.13,SSE,158,0.4,4.3,39,0.00,,,0.00,WUHU216HW,2013-02-26 00:04:00,
2013-02-25 16:09:00,63.4,37.2,30.13,SW,225,2.5,3.6,38,0.00,,,0.00,WUHU216HW,2013-02-26 00:09:00,
2013-02-25 16:14:00,63.0,37.6,30.13,WSW,248,2.7,6.0,39,0.00,,,0.00,WUHU216HW,2013-02-26 00:14:00,
2013-02-25 16:19:00,63.0,38.4,30.13,SSW,203,0.2,6.0,40,0.00,,,0.00,WUHU216HW,2013-02-26 00:19:00,
2013-02-25 16:24:00,63.0,36.9,30.13,SW,225,2.2,4.0,38,0.00,,,0.00,WUHU216HW,2013-02-26 00:24:00,
2013-02-25 16:29:00,62.6,36.5,30.13,SSW,203,3.1,3.8,38,0.00,,,0.00,WUHU216HW,2013-02-26 00:29:00,
2013-02-25 16:34:00,62.5,37.1,30.13,SW,225,2.2,3.8,39,0.00,,,0.00,WUHU216HW,2013-02-26 00:34:00,
2013-02-25 16:39:00,62.1,36.8,30.13,South,180,2.9,3.1,39,0.00,,,0.00,WUHU216HW,2013-02-26 00:39:00,
2013-02-25 16:44:00,61.9,37.4,30.13,West,270,0.0,2.9,40,0.00,,,0.00,WUHU216HW,2013-02-26 00:44:00,
2013-02-25 16:49:00,61.9,37.9,30.13,WSW,248,0.2,2.9,41,0.00,,,0.00,WUHU216HW,2013-02-26 00:49:00,
2013-02-25 16:54:00,61.9,37.4,30.13,South,180,0.7,2.7,40,0.00,,,0.00,WUHU216HW,2013-02-26 00:54:00,
2013-02-25 16:59:00,61.9,37.9,30.14,ESE,113,0.2,2.7,41,0.00,,,0.00,WUHU216HW,2013-02-26 00:59:00,
2013-02-25 17:04:00,62.1,38.1,30.14,WNW,293,0.4,1.8,41,0.00,,,0.00,WUHU216HW,2013-02-26 01:04:00,
2013-02-25 17:09:00,62.1,38.1,30.14,WNW,293,0.4,1.1,41,0.00,,,0.00,WUHU216HW,2013-02-26 01:09:00,
2013-02-25 17:14:00,61.9,38.5,30.14,NW,315,0.4,1.8,42,0.00,,,0.00,WUHU216HW,2013-02-26 01:14:00,
2013-02-25 17:19:00,61.6,38.7,30.13,NNW,338,0.2,1.8,43,0.00,,,0.00,WUHU216HW,2013-02-26 01:19:00,
2013-02-25 17:24:00,61.0,38.8,30.14,WNW,293,0.9,1.1,44,0.00,,,0.00,WUHU216HW,2013-02-26 01:24:00,
2013-02-25 17:29:00,60.8,38.7,30.14,NW,315,0.2,1.6,44,0.00,,,0.00,WUHU216HW,2013-02-26 01:29:00,
2013-02-25 17:34:00,60.1,38.6,30.14,NW,315,0.9,1.8,45,0.00,,,0.00,WUHU216HW,2013-02-26 01:34:00,
2013-02-25 17:39:00,59.6,38.7,30.14,WNW,293,1.8,1.8,46,0.00,,,0.00,WUHU216HW,2013-02-26 01:39:00,
2013-02-25 17:44:00,59.6,38.7,30.14,WNW,293,0.7,2.7,46,0.00,,,0.00,WUHU216HW,2013-02-26 01:44:00,
2013-02-25 17:49:00,59.0,38.8,30.14,NNE,23,0.0,2.7,47,0.00,,,0.00,WUHU216HW,2013-02-26 01:49:00,
2013-02-25 17:54:00,58.1,39.2,30.14,NNE,23,0.0,0.9,49,0.00,,,0.00,WUHU216HW,2013-02-26 01:54:00,
2013-02-25 17:59:00,57.4,38.4,30.14,NNE,23,0.0,0.0,49,0.00,,,0.00,WUHU216HW,2013-02-26 01:59:00,
2013-02-25 18:04:00,57.1,38.7,30.14,NNE,23,0.0,0.0,50,0.00,,,0.00,WUHU216HW,2013-02-26 02:04:00,
2013-02-25 18:09:00,56.2,37.8,30.14,NE,45,0.0,0.4,50,0.00,,,0.00,WUHU216HW,2013-02-26 02:09:00,
2013-02-25 18:14:00,55.6,37.3,30.14,ENE,68,0.0,0.4,50,0.00,,,0.00,WUHU216HW,2013-02-26 02:14:00,
2013-02-25 18:19:00,55.4,37.1,30.14,ENE,68,0.0,0.0,50,0.00,,,0.00,WUHU216HW,2013-02-26 02:19:00,
2013-02-25 18:24:00,55.3,37.4,30.14,ENE,68,0.0,0.0,51,0.00,,,0.00,WUHU216HW,2013-02-26 02:24:00,
2013-02-25 18:29:00,54.5,37.2,30.14,ENE,68,0.0,0.0,52,0.00,,,0.00,WUHU216HW,2013-02-26 02:29:00,
2013-02-25 18:34:00,54.0,37.2,30.14,ENE,68,0.0,0.0,53,0.00,,,0.00,WUHU216HW,2013-02-26 02:34:00,
2013-02-25 18:40:00,53.6,37.4,30.14,ENE,68,0.0,0.0,54,0.00,,,0.00,WUHU216HW,2013-02-26 02:40:00,
2013-02-25 18:45:00,52.9,37.1,30.14,ENE,68,0.0,0.0,55,0.00,,,0.00,WUHU216HW,2013-02-26 02:45:00,
2013-02-25 18:50:00,52.2,36.5,30.14,ENE,68,0.0,0.0,55,0.00,,,0.00,WUHU216HW,2013-02-26 02:50:00,
2013-02-25 18:55:00,51.5,36.6,30.14,ENE,68,0.0,0.0,57,0.00,,,0.00,WUHU216HW,2013-02-26 02:55:00,
2013-02-25 19:00:00,50.8,36.5,30.14,ENE,68,0.0,0.0,58,0.00,,,0.00,WUHU216HW,2013-02-26 03:00:00,
2013-02-25 19:05:00,49.7,36.4,30.14,ENE,68,0.0,0.0,60,0.00,,,0.00,WUHU216HW,2013-02-26 03:05:00,
2013-02-25 19:10:00,48.8,36.0,30.14,ENE,68,0.0,0.0,61,0.00,,,0.00,WUHU216HW,2013-02-26 03:10:00,
2013-02-25 19:15:00,48.4,35.6,30.14,ENE,68,0.0,0.0,61,0.00,,,0.00,WUHU216HW,2013-02-26 03:15:00,
2013-02-25 19:20:00,48.4,36.0,30.15,ENE,68,0.0,0.0,62,0.00,,,0.00,WUHU216HW,2013-02-26 03:20:00,
2013-02-25 19:25:00,48.2,35.5,30.15,ENE,68,0.0,0.0,61,0.00,,,0.00,WUHU216HW,2013-02-26 03:25:00,
2013-02-25 19:30:00,47.9,35.5,30.15,ENE,68,0.0,0.0,62,0.00,,,0.00,WUHU216HW,2013-02-26 03:30:00,
2013-02-25 19:35:00,47.5,35.6,30.15,ENE,68,0.0,0.0,63,0.00,,,0.00,WUHU216HW,2013-02-26 03:35:00,
2013-02-25 19:40:00,47.2,35.2,30.15,ENE,68,0.0,0.0,63,0.00,,,0.00,WUHU216HW,2013-02-26 03:40:00,
2013-02-25 19:45:00,46.8,34.8,30.15,ENE,68,0.0,0.0,63,0.00,,,0.00,WUHU216HW,2013-02-26 03:45:00,
2013-02-25 19:50:00,46.4,34.9,30.14,ENE,68,0.0,0.0,64,0.00,,,0.00,WUHU216HW,2013-02-26 03:50:00,
2013-02-25 19:55:00,46.1,34.9,30.15,ENE,68,0.0,0.0,65,0.00,,,0.00,WUHU216HW,2013-02-26 03:55:00,
2013-02-25 20:00:00,45.5,34.8,30.15,ENE,68,0.0,0.0,66,0.00,,,0.00,WUHU216HW,2013-02-26 04:00:00,
2013-02-25 20:05:00,45.2,34.8,30.15,ENE,68,0.0,0.0,67,0.00,,,0.00,WUHU216HW,2013-02-26 04:05:00,
2013-02-25 20:10:00,45.0,34.7,30.15,ENE,68,0.0,0.0,67,0.00,,,0.00,WUHU216HW,2013-02-26 04:10:00,
2013-02-25 20:15:00,44.6,34.8,30.15,NE,45,0.0,0.4,68,0.00,,,0.00,WUHU216HW,2013-02-26 04:15:00,
2013-02-25 20:20:00,44.5,34.6,30.15,NE,45,0.0,0.4,68,0.00,,,0.00,WUHU216HW,2013-02-26 04:20:00,
2013-02-25 20:25:00,44.3,34.4,30.15,NE,45,0.0,0.0,68,0.00,,,0.00,WUHU216HW,2013-02-26 04:25:00,
2013-02-25 20:30:00,43.7,34.3,30.15,NE,45,0.0,0.0,69,0.00,,,0.00,WUHU216HW,2013-02-26 04:30:00,
2013-02-25 20:35:00,43.6,34.5,30.15,NE,45,0.0,0.0,70,0.00,,,0.00,WUHU216HW,2013-02-26 04:35:00,
2013-02-25 20:40:00,43.0,34.3,30.15,ESE,113,0.0,0.2,71,0.00,,,0.00,WUHU216HW,2013-02-26 04:40:00,
2013-02-25 20:45:00,42.8,34.2,30.15,ESE,113,0.0,0.2,71,0.00,,,0.00,WUHU216HW,2013-02-26 04:45:00,
2013-02-25 20:50:00,42.3,33.9,30.15,SE,135,0.0,0.4,72,0.00,,,0.00,WUHU216HW,2013-02-26 04:50:00,
2013-02-25 20:55:00,41.8,33.8,30.15,ESE,113,0.0,0.4,73,0.00,,,0.00,WUHU216HW,2013-02-26 04:55:00,
2013-02-25 21:00:00,41.8,33.8,30.15,NNE,23,0.0,0.4,73,0.00,,,0.00,WUHU216HW,2013-02-26 05:00:00,
2013-02-25 21:05:00,41.8,33.4,30.15,North,0,0.0,0.0,72,0.00,,,0.00,WUHU216HW,2013-02-26 05:05:00,
2013-02-25 21:10:00,41.4,33.7,30.15,North,0,0.0,0.0,74,0.00,,,0.00,WUHU216HW,2013-02-26 05:10:00,
2013-02-25 21:15:00,41.4,34.4,30.15,North,0,0.0,0.0,76,0.00,,,0.00,WUHU216HW,2013-02-26 05:15:00,
2013-02-25 21:20:00,41.4,34.0,30.15,North,0,0.0,0.0,75,0.00,,,0.00,WUHU216HW,2013-02-26 05:20:00,
2013-02-25 21:25:00,41.0,33.7,30.15,ENE,68,0.0,0.0,75,0.00,,,0.00,WUHU216HW,2013-02-26 05:25:00,
2013-02-25 21:30:00,41.0,33.7,30.15,ENE,68,0.0,0.0,75,0.00,,,0.00,WUHU216HW,2013-02-26 05:30:00,
2013-02-25 21:35:00,40.9,33.1,30.16,ENE,68,0.0,0.0,74,0.00,,,0.00,WUHU216HW,2013-02-26 05:35:00,
2013-02-25 21:40:00,40.7,33.0,30.16,ENE,68,0.0,0.0,74,0.00,,,0.00,WUHU216HW,2013-02-26 05:40:00,
2013-02-25 21:45:00,40.7,33.0,30.16,ESE,113,0.0,0.0,74,0.00,,,0.00,WUHU216HW,2013-02-26 05:45:00,
2013-02-25 21:50:00,40.3,32.9,30.16,SE,135,0.0,0.0,75,0.00,,,0.00,WUHU216HW,2013-02-26 05:50:00,
2013-02-25 21:55:00,40.5,33.5,30.16,SW,225,0.0,0.2,76,0.00,,,0.00,WUHU216HW,2013-02-26 05:55:00,
2013-02-25 22:00:00,40.5,33.5,30.16,North,0,0.0,0.2,76,0.00,,,0.00,WUHU216HW,2013-02-26 06:00:00,
2013-02-25 22:05:00,40.0,33.3,30.17,North,0,0.0,0.0,77,0.00,,,0.00,WUHU216HW,2013-02-26 06:05:00,
2013-02-25 22:10:00,40.0,33.3,30.17,North,0,0.0,0.0,77,0.00,,,0.00,WUHU216HW,2013-02-26 06:10:00,
2013-02-25 22:15:00,39.6,33.7,30.17,East,90,0.0,0.0,79,0.00,,,0.00,WUHU216HW,2013-02-26 06:15:00,
2013-02-25 22:20:00,39.6,33.3,30.18,SE,135,0.2,0.4,78,0.00,,,0.00,WUHU216HW,2013-02-26 06:20:00,
2013-02-25 22:25:00,39.4,33.5,30.17,ESE,113,0.0,0.4,79,0.00,,,0.00,WUHU216HW,2013-02-26 06:25:00,
2013-02-25 22:30:00,39.2,32.7,30.17,ESE,113,0.0,0.2,77,0.00,,,0.00,WUHU216HW,2013-02-26 06:30:00,
2013-02-25 22:35:00,39.1,32.5,30.17,ESE,113,0.0,0.0,77,0.00,,,0.00,WUHU216HW,2013-02-26 06:35:00,
2013-02-25 22:40:00,39.1,32.8,30.17,ESE,113,0.0,0.0,78,0.00,,,0.00,WUHU216HW,2013-02-26 06:40:00,
2013-02-25 22:45:00,39.1,32.8,30.17,SE,135,0.0,0.0,78,0.00,,,0.00,WUHU216HW,2013-02-26 06:45:00,
2013-02-25 22:50:00,38.9,32.6,30.17,NNW,338,0.0,0.0,78,0.00,,,0.00,WUHU216HW,2013-02-26 06:50:00,
2013-02-25 22:55:00,38.7,32.5,30.17,NNW,338,0.0,0.0,78,0.00,,,0.00,WUHU216HW,2013-02-26 06:55:00,
2013-02-25 23:00:00,38.5,32.3,30.17,NNW,338,0.0,0.0,78,0.00,,,0.00,WUHU216HW,2013-02-26 07:00:00,
2013-02-25 23:05:00,38.3,32.1,30.17,North,0,0.0,0.0,78,0.00,,,0.00,WUHU216HW,2013-02-26 07:05:00,
2013-02-25 23:10:00,38.2,32.0,30.17,ENE,68,0.0,0.0,78,0.00,,,0.00,WUHU216HW,2013-02-26 07:10:00,
2013-02-25 23:15:00,38.0,32.0,30.17,East,90,0.0,0.4,79,0.00,,,0.00,WUHU216HW,2013-02-26 07:15:00,
2013-02-25 23:20:00,37.8,31.9,30.17,East,90,0.0,0.4,79,0.00,,,0.00,WUHU216HW,2013-02-26 07:20:00,
2013-02-25 23:25:00,38.0,31.8,30.17,ENE,68,0.0,0.2,78,0.00,,,0.00,WUHU216HW,2013-02-26 07:25:00,
2013-02-25 23:30:00,37.8,32.2,30.16,North,0,0.0,0.4,80,0.00,,,0.00,WUHU216HW,2013-02-26 07:30:00,
2013-02-25 23:35:00,37.6,31.7,30.16,North,0,0.0,0.4,79,0.00,,,0.00,WUHU216HW,2013-02-26 07:35:00,
2013-02-25 23:40:00,37.8,31.9,30.17,North,0,0.0,0.0,79,0.00,,,0.00,WUHU216HW,2013-02-26 07:40:00,
2013-02-25 23:45:00,37.8,32.2,30.17,North,0,0.0,0.0,80,0.00,,,0.00,WUHU216HW,2013-02-26 07:45:00,
2013-02-25 23:50:00,37.8,31.9,30.17,WNW,293,0.0,0.0,79,0.00,,,0.00,WUHU216HW,2013-02-26 07:50:00,
2013-02-25 23:55:00,37.8,31.9,30.16,WNW,293,0.0,0.0,79,0.00,,,0.00,WUHU216HW,2013-02-26 07:55:00,